Regional Weather Roundup
Issued by NWS

Home | Current Version | Previous Version | Text Only | Print | Product List | Glossary On
Versions: 1 2 3 4 5 6 7 8 9 10 11 12 13 14 15 16 17 18 19 20 21 22 23 24 25 26 27 28 29 30 31 32 33 34 35 36 37 38 39 40 41 42 43 44 45 46 47 48 49 50
000
ASUS45 KSLC 231810
RWRUT

UTAH REGIONAL WEATHER ROUNDUP
NATIONAL WEATHER SERVICE SALT LAKE CITY UT
1200 PM MDT SAT JUL 23 2016

UTZ001>011-023>025-231900-

NORTHERN UTAH

CITY           SKY/WX    TMP DP  RH WIND       PRES   REMARKS
BRIGHAM CITY     N/A     84  21   9 N6        30.15S
HILL AFB       SUNNY     83  37  18 S6        30.18S
LOGAN          SUNNY     81  35  19 CALM      30.17F
OGDEN          SUNNY     85  34  16 VRB5      30.15S
PROVO AIRPORT  MOSUNNY   82  39  21 W8        30.16F
SALT LAKE CITY MOSUNNY   86  36  16 NW8       30.13F
VERNAL         SUNNY     83  49  30 VRB3      30.17S
WENDOVER       SUNNY     82  30  15 SE9       30.17F
HEBER CITY     SUNNY     82  32  16 CALM      30.20F

$$

UTZ012>022-026-027-231900-

SOUTHERN/CENTRAL UTAH

CITY           SKY/WX    TMP DP  RH WIND       PRES   REMARKS
BLANDING       SUNNY     85  48  28 S8        30.30F
BRYCE CANYON   SUNNY     82  32  16 CALM      30.36F
CEDAR CITY     SUNNY     90  37  15 VRB6      30.19F
DELTA          SUNNY     86  28  12 CALM      30.16F
MILFORD        SUNNY     89  28  11 N12       30.16F
MOAB/CYNLANDS  SUNNY     90  49  24 CALM      30.10S
PRICE          SUNNY     83  46  27 SW6       30.21F
ST GEORGE      CLEAR     99  46  16 SW3       29.99F HX  95
KANAB          SUNNY     93  45  18 S8        30.16F

$$

REGIONAL REPORTS     COLORADO/ARIZONA

CITY           SKY/WX    TMP DP  RH WIND       PRES   REMARKS
CRAIG, CO      SUNNY     84  42  22 MISG      30.23F
GRAND JUNCTION SUNNY     86  51  29 SE5       30.14F
RIFLE          SUNNY     85  48  27 N5        30.20F
MONTROSE       SUNNY     85  50  29 NE6       30.23F
CORTEZ         SUNNY     87  48  25 E6        30.23F
PAGE, AZ       SUNNY     93  45  19 VRB6      30.09F
GRAND CANYON   MOSUNNY   87  42  20 SW6       30.31F
KINGMAN        SUNNY     99  43  14 SW20G25   30.04F HX  95
FLAGSTAFF      MOSUNNY   81  41  24 VRB5      30.34S

$$

REGIONAL REPORTS    NEVADA/IDAHO/WYOMING

CITY           SKY/WX    TMP DP  RH WIND       PRES   REMARKS
LAS VEGAS, NV  MOSUNNY  103  27   7 N3        29.86F HX  96
ELY            SUNNY     80  22  11 VRB6      30.26F
ELKO           SUNNY     80  27  14 VRB5      30.22F
POCATELLO, ID  SUNNY     76  38  25 SW14      30.21S
BURLEY         SUNNY     72  44  36 W12G20    30.19F
EVANSTON, WY   SUNNY     78  22  12 MISG      30.32F
ROCK SPRINGS   SUNNY     79  20  11 W16       30.28S
KEMMERER         N/A     75  19  12 W17G25    30.33S

$$



USA.gov is the U.S. government's official web portal to all federal, state and local government web resources and services.